Location: ??
(35.5672°N, 139.6509°E)
Time: 11:58:07
(UTC+00:00)

USA 281 - Pass Details

Date: 03 August 2024
Orbit: 1078 x 1081 km, 106.0° (Epoch: 04 September)

Event Time Altitude Azimuth Distance (km) Brightness Sun altitude
Exits shadow 15:01:21 43° 49° (NE) 1,470 4.0 -37.1°
Drops below altitude 10° 15:07:00 10° 352° (N) 2,925 6.2 -37.0°
Sets 15:09:37 0° 346° (NNW) 3,884 7.0 -36.9°
